Theta_e
323 326 328 325 312 309 303 303 308 306 308 314 317 315 313 315 311 307 331 331 338 339 343 346 348 352 352 351 350 349 350 351 352 351 351 350 351 350 351 351 352 351 351 350 349 349 349 347 344
317 324 326 320 306 301 303 308 305 309 315 318 318 316 315 313 319 322 323 328 337 339 342 347 344 349 350 350 349 348 348 350 352 352 350 348 348 349 351 350 351 350 350 350 349 348 346 344 345
320 323 319 314 308 302 303 308 310 315 318 317 316 320 318 316 321 320 323 327 332 337 341 344 343 348 350 350 349 348 347 347 349 350 351 351 349 349 350 349 349 349 348 347 347 348 346 344 344
321 323 320 307 304 309 310 313 316 316 318 319 318 315 321 323 318 316 319 323 326 332 340 342 344 347 348 349 348 347 347 346 346 347 349 350 350 350 349 349 348 348 348 347 344 344 344 343 343
321 320 309 306 307 311 314 316 316 313 313 316 317 314 317 317 316 313 314 316 316 322 332 339 343 345 347 347 348 347 346 346 346 345 346 346 347 347 347 347 346 346 346 346 345 344 343 343 342
312 314 305 303 306 310 313 313 312 309 311 312 312 312 316 320 309 310 311 312 313 314 326 335 335 339 343 345 346 346 346 346 346 345 345 345 344 344 345 346 345 346 346 346 346 341 342 342 341
304 307 304 305 304 305 306 310 308 305 303 307 309 304 313 307 308 308 310 312 313 313 321 331 337 339 334 338 340 342 343 343 344 345 344 343 342 343 343 343 344 347 348 346 345 343 342 341 337
306 305 299 300 296 296 304 305 301 300 298 303 304 300 299 301 305 307 309 310 310 311 311 313 319 330 336 342 334 335 337 339 339 339 338 336 336 337 338 337 341 346 346 345 344 342 341 341 338
308 295 292 294 293 297 298 296 300 301 300 301 301 299 300 302 304 305 305 306 306 307 308 310 311 313 322 334 335 330 331 333 332 334 332 332 341 339 339 336 336 342 343 344 343 342 340 337 334
298 294 294 296 295 293 295 295 296 296 297 294 294 297 298 299 300 300 300 301 301 302 305 306 307 309 313 318 333 338 341 342 341 342 343 342 340 339 336 331 330 335 336 340 342 341 336 331 334
296 294 295 293 294 294 293 293 296 293 292 289 289 292 295 297 298 297 298 298 298 300 302 302 303 305 308 312 323 334 336 341 343 342 343 344 341 339 338 339 336 338 329 341 340 340 340 337 331
293 294 293 294 292 289 288 293 292 289 288 291 292 293 294 294 294 294 294 295 296 297 298 299 300 301 304 307 312 324 333 336 339 342 343 341 339 340 339 338 340 339 339 338 337 339 338 335 330
292 292 293 293 290 287 289 289 291 288 291 292 292 292 293 293 293 294 294 294 294 294 296 297 298 299 300 302 305 309 321 333 336 338 340 341 340 340 340 340 339 340 339 338 338 335 331 328 322
292 292 291 290 287 287 285 289 291 289 292 291 291 291 292 291 291 292 291 291 291 292 293 295 295 297 298 299 301 303 308 318 334 337 337 339 339 340 339 337 338 339 340 339 336 330 325 322 318
291 288 289 286 285 283 285 285 284 289 291 290 290 290 291 291 291 290 290 290 290 291 292 292 293 295 296 296 299 301 305 308 315 333 337 337 337 336 335 333 332 334 336 336 333 330 327 322 317
286 287 285 282 283 283 284 280 285 289 289 288 289 289 290 290 290 290 291 290 290 290 290 291 292 292 293 294 297 299 303 306 308 317 335 337 337 336 335 333 332 333 333 332 331 328 323 321 316
284 283 280 280 282 282 284 281 285 288 288 287 287 288 288 289 290 290 290 290 289 289 289 289 290 290 291 292 295 298 300 302 307 317 325 334 335 335 334 333 332 332 331 331 329 327 325 321 317
279 279 278 278 280 281 281 281 284 286 286 286 286 287 287 287 288 290 290 290 290 289 289 289 289 289 290 292 293 295 297 300 303 305 308 314 329 333 333 332 332 331 330 329 328 326 326 325 323
278 277 277 278 279 278 278 279 283 284 285 285 285 286 286 286 289 290 290 290 289 290 288 288 287 288 289 289 290 291 292 296 299 302 304 306 309 318 332 331 330 329 328 327 326 325 321 316 318
278 277 277 279 279 279 279 279 283 284 283 284 284 285 285 286 287 288 288 289 289 288 288 287 287 287 288 289 289 290 291 293 296 301 304 304 305 309 316 330 331 328 328 326 324 323 314 310 308
276 274 274 274 278 280 279 279 280 284 285 285 286 286 286 285 285 286 286 287 288 287 287 287 287 286 287 287 288 288 290 291 292 294 296 299 301 304 306 313 330 328 327 324 323 320 316 308 304
275 276 275 275 276 277 279 277 279 283 283 284 284 284 284 284 285 286 286 286 287 287 288 288 287 286 286 287 286 284 284 285 288 289 292 295 299 302 305 307 320 328 326 325 323 321 319 316 307
275 277 276 276 276 276 277 276 280 282 280 282 282 283 284 284 285 285 285 286 287 287 287 287 287 287 286 286 285 284 283 284 286 288 288 291 294 297 300 308 313 326 324 324 322 319 318 318 313
277 276 276 277 277 274 276 275 279 280 281 281 282 283 283 284 284 285 286 286 286 287 286 286 286 286 286 286 285 284 283 283 283 284 285 287 289 292 298 302 306 321 323 322 322 319 317 317 317
278 276 277 275 274 275 276 273 279 282 281 281 280 281 283 284 284 284 284 284 285 285 285 285 285 284 285 285 285 284 284 283 282 282 283 284 286 288 291 295 298 304 323 322 321 318 317 316 315
274 274 275 270 272 274 274 271 279 283 283 282 282 282 283 283 283 283 284 284 284 284 284 284 284 283 284 284 284 284 284 284 283 283 283 283 284 285 288 292 296 299 321 320 319 316 316 316 315
273 274 273 271 268 268 275 278 281 281 280 281 281 282 282 282 283 283 284 284 284 283 283 283 282 282 283 283 284 284 284 283 283 283 284 284 283 285 287 289 292 297 314 318 317 315 313 313 313
274 276 271 272 268 268 274 273 276 277 279 281 280 280 281 282 283 283 284 284 284 284 283 282 282 281 281 281 282 283 283 283 283 284 283 284 284 284 285 286 290 295 300 316 315 313 312 310 310
271 272 271 271 271 270 269 275 283 280 282 281 281 280 281 282 282 283 284 284 284 284 283 281 281 280 280 280 280 281 282 283 283 283 282 283 284 284 284 285 287 289 295 304 312 311 309 307 306
274 273 274 271 269 270 268 270 281 279 280 280 280 281 281 282 282 283 284 284 283 283 282 281 280 280 279 279 279 279 279 280 281 281 281 282 282 283 284 284 284 285 287 288 297 303 304 304 302
Wind_Speed
17 9 7 6 7 5 0 5 2 3 4 6 6 7 7 5 8 6 10 15 8 4 5 16 9 10 10 12 12 11 11 13 14 14 14 14 13 13 13 12 11 11 12 12 12 12 13 10 10
11 10 5 5 6 7 4 7 3 5 11 6 5 1 5 6 3 13 14 18 10 7 3 10 11 9 11 10 11 10 11 12 13 14 14 15 14 13 13 12 11 11 12 12 12 12 11 10 10
8 5 5 4 6 8 3 5 5 8 5 9 6 2 4 13 20 9 15 16 13 9 3 4 15 10 10 10 11 12 11 11 12 13 13 14 15 14 13 12 11 10 11 11 11 11 11 12 11
4 5 5 8 12 9 6 7 10 7 5 3 6 8 5 16 12 15 16 16 15 14 8 8 11 11 9 10 11 12 12 12 12 12 12 13 13 13 12 12 11 12 11 12 12 12 12 12 12
4 3 9 11 12 10 7 8 7 7 6 3 6 6 6 18 16 20 19 17 16 15 12 8 9 8 9 9 10 11 12 12 12 13 13 12 13 13 12 12 12 11 11 12 12 12 12 12 12
4 4 9 11 13 3 5 1 7 5 7 6 5 9 3 9 23 21 20 19 16 14 12 7 5 7 7 10 11 12 12 12 12 12 13 13 13 13 13 13 14 13 13 14 15 14 13 13 12
9 7 13 15 12 11 7 5 10 8 8 10 12 10 7 26 24 23 21 17 15 15 11 11 8 3 9 8 9 12 13 13 13 12 11 11 11 11 12 12 13 13 15 15 15 16 13 13 14
6 5 10 9 6 4 7 5 9 11 7 12 16 10 19 28 26 21 18 17 18 17 18 16 13 11 9 9 14 11 12 13 12 10 10 9 8 9 10 9 11 12 11 14 13 14 15 14 13
3 6 8 9 4 6 10 8 9 11 10 10 19 19 21 23 23 21 19 19 17 17 19 18 17 16 13 10 8 11 12 14 12 13 12 11 12 14 16 14 12 13 11 11 13 13 14 13 13
5 4 4 10 10 7 7 8 11 9 10 13 21 21 24 23 21 20 21 20 22 23 23 21 22 21 16 12 10 9 10 9 12 12 14 13 14 12 13 13 14 13 11 11 11 13 13 12 7
3 4 6 9 11 7 7 8 9 11 2 15 19 22 22 21 21 20 19 20 20 20 18 21 20 20 19 16 10 5 5 6 8 14 13 12 11 10 9 8 9 10 11 10 11 10 10 13 8
7 4 5 7 9 8 6 6 4 15 12 14 16 16 18 19 17 19 18 19 21 20 20 20 21 19 19 14 13 11 7 5 7 10 14 11 8 10 10 9 10 11 9 12 11 9 10 11 10
5 5 2 7 11 12 8 5 3 17 13 12 12 14 16 18 19 17 18 18 19 21 20 20 20 19 17 17 13 14 14 7 7 9 11 12 12 11 10 10 10 10 11 11 10 7 7 9 8
3 2 5 6 11 9 12 10 4 16 12 12 13 15 16 18 19 18 19 20 20 20 21 21 20 19 18 16 17 14 13 16 8 9 9 13 11 10 9 9 9 9 9 8 8 9 8 8 7
2 6 5 10 12 4 11 7 10 11 10 11 11 13 15 18 19 20 20 20 20 18 20 21 21 20 19 19 16 13 12 14 14 9 13 12 12 12 10 9 10 9 8 9 8 10 9 8 7
3 4 8 11 11 6 9 8 10 10 11 13 13 13 13 16 18 19 20 20 20 20 20 20 18 20 20 19 15 13 12 12 13 14 9 13 14 15 13 11 11 11 9 9 9 8 8 9 9
3 0 3 4 8 9 7 6 7 7 9 11 12 13 13 14 16 17 19 19 20 20 21 21 21 20 21 19 15 14 16 12 12 13 12 13 15 17 14 11 11 13 9 10 10 10 12 9 9
3 2 2 3 8 11 5 5 3 6 8 10 12 13 15 16 17 16 16 17 18 19 20 20 18 21 20 14 13 13 12 12 12 13 13 20 13 16 15 13 12 12 11 11 11 14 11 10 10
4 1 3 2 3 7 1 4 6 1 5 10 12 13 15 15 14 15 15 16 17 19 20 21 22 21 16 13 13 13 13 13 12 12 19 18 17 21 16 13 12 12 12 12 14 13 14 6 7
2 2 5 3 2 5 3 8 9 8 1 4 9 12 14 16 18 18 18 18 18 18 20 21 21 21 16 13 12 12 13 13 13 13 16 20 19 19 20 17 14 13 13 15 14 14 5 5 9
6 7 6 4 8 5 9 8 13 12 10 3 6 8 11 15 17 18 19 19 18 19 19 19 20 20 17 19 13 13 13 12 11 13 14 17 22 21 20 22 18 14 13 11 14 12 14 8 9
2 7 6 5 6 2 4 1 12 11 9 4 5 9 12 13 13 14 16 17 17 17 17 18 18 19 17 19 15 18 13 15 13 13 13 17 20 22 21 20 21 19 12 16 15 14 16 13 11
4 9 4 3 4 5 6 5 9 7 8 5 4 7 9 10 11 13 14 15 15 16 16 16 18 18 19 18 17 13 15 12 13 13 19 17 17 20 21 21 22 18 13 16 15 14 17 14 12
8 2 3 3 3 3 7 3 8 9 5 5 2 6 8 10 11 12 13 12 13 14 15 15 17 18 19 18 18 18 19 19 15 16 14 13 13 15 19 22 18 21 15 15 15 16 19 16 15
5 3 1 3 3 2 6 5 8 6 7 5 4 6 7 8 9 10 12 13 13 14 15 15 17 17 18 19 18 18 18 19 19 18 14 17 13 14 18 23 20 21 15 15 16 16 17 17 14
5 3 3 4 3 5 6 8 3 5 8 7 6 6 7 7 7 8 9 10 11 12 13 14 16 17 17 17 17 16 17 11 12 15 15 12 12 14 20 21 21 22 21 16 15 11 12 15 15
3 1 3 2 2 3 5 5 8 9 10 10 9 7 6 7 7 8 8 8 9 10 11 13 14 15 16 17 15 16 15 16 15 18 16 13 15 15 19 21 22 19 20 14 14 12 13 13 14
4 5 3 3 3 6 6 6 10 11 13 13 12 9 6 7 9 9 8 8 8 9 9 10 12 13 15 16 15 14 15 16 15 15 17 19 17 18 20 21 22 19 21 16 16 13 12 14 11
5 4 3 3 3 4 6 5 4 3 7 9 9 5 6 10 11 11 10 8 8 9 9 10 10 12 13 14 15 15 15 15 15 14 16 17 19 19 20 21 20 21 22 20 13 14 12 14 12
4 4 7 4 5 5 4 11 1 1 3 3 8 7 10 12 11 12 10 9 9 9 9 9 9 10 11 12 13 15 15 16 15 15 17 18 19 19 19 20 20 20 21 23 18 7 10 13 12
Wind_Direction
305 310 307 264 260 236 139 133 28 106 149 57 10 348 3 319 359 31 100 15 7 353 189 174 204 192 190 171 183 184 180 180 181 181 178 179 177 173 170 170 171 176 173 172 166 159 148 132 137
312 316 247 290 260 247 155 126 194 58 48 345 319 260 267 343 59 54 19 358 15 3 225 183 176 210 209 185 186 199 192 189 188 187 189 191 188 184 178 175 172 177 178 176 174 172 154 150 152
292 288 280 272 256 257 39 82 35 53 46 353 314 343 329 10 55 31 13 11 9 12 336 211 161 210 210 201 191 195 203 206 198 194 195 194 195 194 187 184 181 180 181 180 179 168 158 160 162
298 202 228 250 262 269 291 321 349 335 343 58 351 297 91 50 51 14 3 9 13 11 10 109 156 191 228 209 198 203 208 208 208 207 205 204 201 198 195 188 189 188 187 186 186 180 171 169 169
230 258 260 250 265 275 348 348 313 308 322 340 359 292 290 69 29 11 3 359 3 4 7 341 152 194 224 231 219 213 217 219 216 208 210 212 210 206 204 201 202 201 202 196 185 177 172 170 170
224 283 253 257 268 81 155 79 311 314 32 38 337 333 54 78 17 358 350 348 350 2 1 359 146 200 238 226 221 218 218 225 230 225 218 212 214 214 211 207 204 209 210 200 188 180 174 170 171
255 242 260 277 301 295 40 2 33 0 17 35 337 318 301 18 0 348 339 341 352 2 10 358 349 227 217 257 233 216 215 219 223 227 229 226 217 216 217 214 212 212 213 206 193 167 179 179 187
277 265 267 264 279 318 52 24 27 26 348 336 353 348 352 354 343 344 350 354 2 4 359 359 352 335 315 236 226 230 215 209 219 234 217 222 225 219 215 217 217 218 208 196 179 173 174 182 177
297 246 262 292 327 96 41 355 15 334 290 354 1 9 354 349 350 354 358 5 6 8 359 4 0 349 330 298 268 221 226 216 212 223 217 206 227 223 226 219 213 210 210 197 186 182 181 179 157
224 249 297 38 36 18 347 352 354 326 348 7 343 347 350 349 349 353 359 3 7 0 1 4 356 346 337 318 292 258 246 230 225 225 220 215 223 226 215 215 212 204 206 204 201 183 175 163 166
182 258 41 60 31 1 15 4 330 345 31 3 339 344 345 349 5 11 1 355 354 351 355 355 352 345 343 340 315 286 251 245 233 224 222 225 215 219 217 214 202 214 208 215 210 200 194 190 174
207 83 34 35 29 27 26 325 24 60 5 337 4 348 352 0 355 0 354 351 347 348 349 348 349 345 345 337 325 309 263 224 250 235 226 221 225 220 215 207 205 203 209 214 211 210 195 186 180
241 96 51 54 23 31 338 346 102 29 1 12 0 4 5 6 2 0 357 350 348 345 345 346 344 343 341 337 331 326 318 258 225 253 236 221 221 220 222 214 213 202 203 204 212 182 175 182 180
88 124 67 38 8 43 359 36 155 14 10 29 17 18 15 14 9 4 2 354 352 345 344 342 342 342 338 336 330 322 316 318 261 227 246 244 231 228 219 221 233 225 210 203 180 177 181 187 175
153 190 180 42 13 28 333 92 34 5 15 35 41 26 18 16 13 11 1 354 351 347 343 343 339 341 339 334 329 319 313 315 313 269 233 232 225 225 220 216 214 218 214 209 189 188 183 185 179
176 212 206 68 14 358 329 101 43 22 24 35 34 34 26 19 15 11 3 358 354 349 348 342 341 338 339 332 325 319 316 312 305 301 256 234 229 222 222 216 213 215 207 198 199 197 182 193 186
158 333 19 104 49 351 341 103 54 23 29 26 26 26 23 17 19 13 6 0 355 353 350 347 344 342 339 329 326 323 324 312 307 304 291 255 242 230 223 223 215 207 207 197 194 202 188 198 194
32 360 5 332 18 358 47 115 46 34 24 20 14 13 13 10 9 10 9 4 358 356 354 350 348 346 341 335 332 333 322 324 318 316 309 326 280 239 231 230 220 209 204 202 200 197 200 193 192
54 319 337 76 83 326 128 254 218 318 5 9 3 0 359 360 355 1 6 6 2 1 356 355 350 350 346 342 340 331 328 323 315 322 311 307 305 310 241 230 223 204 209 203 198 204 184 189 172
27 295 38 187 174 299 217 269 209 210 240 354 352 352 352 349 351 354 357 1 2 0 359 355 354 350 348 346 333 328 325 317 313 311 326 325 322 322 319 240 224 218 213 200 204 199 167 160 176
52 21 348 311 310 234 283 229 194 206 219 248 351 354 354 353 350 351 352 355 356 359 358 356 354 351 351 347 340 334 324 325 324 328 318 321 315 310 307 305 240 215 209 203 196 189 185 183 199
178 4 307 278 294 328 340 354 194 197 212 211 341 0 354 352 353 351 353 351 354 354 354 354 355 353 354 349 346 343 335 328 327 318 314 319 314 309 303 288 285 229 213 216 207 195 198 188 199
37 328 280 262 279 302 168 254 111 166 227 212 320 344 356 356 352 350 355 354 351 353 352 352 353 356 357 354 352 347 339 326 319 320 320 319 317 316 308 301 307 242 213 221 207 205 200 207 195
298 306 196 233 293 252 112 341 181 184 194 191 261 330 345 351 351 354 353 354 353 351 351 351 353 356 358 357 355 353 346 337 332 330 326 324 320 316 314 314 309 274 223 219 216 206 202 204 211
319 284 197 213 224 298 132 282 285 164 178 202 258 310 329 338 346 345 348 347 353 353 351 351 354 354 356 357 355 354 350 344 336 334 326 325 324 322 317 314 302 311 221 219 215 210 210 208 204
9 350 346 283 273 348 151 236 238 166 177 199 234 272 290 318 332 335 341 341 345 349 351 349 350 350 353 355 354 351 354 347 340 337 332 322 322 318 316 312 306 306 252 214 208 209 213 211 208
51 181 44 300 101 282 233 231 225 186 203 218 236 250 284 296 308 318 325 331 335 341 344 345 346 346 348 351 351 352 353 350 343 340 336 331 326 324 323 317 314 302 291 202 201 211 204 212 210
304 120 199 166 269 271 218 267 259 201 215 216 219 233 266 290 297 307 313 318 322 324 329 335 340 342 344 346 346 347 349 351 346 340 343 337 333 335 332 328 323 327 331 224 210 207 200 201 211
158 194 202 317 259 279 296 253 40 240 208 213 226 235 277 304 302 305 305 306 306 308 320 327 334 337 341 342 340 341 344 347 348 346 343 343 336 343 341 337 338 349 343 314 218 207 194 195 196
323 242 204 242 175 249 305 273 75 236 250 236 265 256 280 306 295 296 285 289 291 301 311 318 326 331 336 336 334 336 339 342 343 347 344 344 345 344 347 341 347 357 351 352 335 286 190 188 187